sat.trackr.live / text

‹ back to catalog

STARLINK-37206

NORAD 68326 · 2026-059F

PAYLOAD ACTIVE UNKNOWN

§ Identity

Operator
Country
US
Launch date
2026-03-22
Launch site
AFETR
Launch vehicle
Mass (kg)
RCS (m²)

Purposes: comms

External: N2YO · Heavens-Above · Gunter

§ Orbital elements

Epoch: 2026-09-20T00:25:31.776096Z

Period
93.85 min
Inclination
53.1597°
Eccentricity
0.0001088
Mean motion
15.34402074 rev/d
Perigee alt
462.0 km
Apogee alt
463.4 km
Semi-major
6,840.8 km
B*
4.8816e-4
RAAN
163.8212°
Arg perigee
79.3144°
Mean anomaly
280.7981°
Rev number
2,795

§ Raw data

STARLINK-372061 68326U 26059F   26263.01772889  .00016154  00000+0  48816-3 0  99942 68326  53.1597 163.8212 0001088  79.3144 280.7981 15.34402074 27953

JSON: /api/v1/satellites/68326 · /tle

For live sub-satellite position, see the globe view (requires WebGL).

§ Visibility from observer

Set your observer location to see the next 7 days of passes ≥ 10°. The values pass through the URL so the page stays shareable.

No JS? Fill the form by hand. The geolocation button needs JavaScript.